NOAA NWS Hourly Roundups by Site

Regional Weather Roundup for San Diego, CA

To Select Another Site Choose from List

Select Site:  

000
ASUS46 KSGX 120710
RWRSGX

SAN DIEGO HOURLY WEATHER ROUNDUP
NATIONAL WEATHER SERVICE SAN DIEGO CA
1200 AM PDT WED MAY 12 2021

NOTE: "FAIR" INDICATES FEW OR NO CLOUDS BELOW 12,000 FEET WITH NO
SIGNIFICANT WEATHER AND/OR OBSTRUCTIONS TO VISIBILITY.

CAZ042-043-060-061-PZZ750-775-120800-

GREATER SAN DIEGO AREA

CITY           SKY/WX    TMP DP  RH WIND       PRES   REMARKS
SAN DIEGO AP   PTCLDY    62  54  74 W3        30.00R
BROWN FIELD    CLEAR     57  49  74 SW3       29.99R
MIRAMAR MCAS   MOCLDY    59  54  83 CALM      29.98R
MONTGOMERY FLD CLOUDY    60  54  80 NW5       29.99R
GILLESPIE FLD  FAIR      57  54  88 W5        29.98R
LEMON GROVE      N/A     58  54  86 CALM      29.96R

$$

NORTH SAN DIEGO COUNTY

CITY           SKY/WX    TMP DP  RH WIND       PRES   REMARKS
CAMP PENDLETON CLOUDY    63  54  72 CALM      29.97S
OCEANSIDE AP   CLOUDY    62  55  77 CALM      29.97S
OCEANSIDE HBR    N/A     62  57  84 CALM      30.04S
VISTA            N/A     60  55  85 CALM      29.96S
CARLSBAD       CLOUDY    60  54  80 CALM      29.97S
ENCINITAS        N/A     59  56  88 CALM        N/A
LA JOLLA SCRIP   N/A     59  55  85 CALM      29.98R
FALLBROOK      CLOUDY    57  55  94 CALM      29.99S
ESCONDIDO        N/A     59  54  83 CALM      29.98R
SAN MARCOS       N/A     58  54  85 CALM      30.01R
RANCHO BERNARD   N/A     57  53  85 W2        29.97S
POWAY            N/A     56  51  85 CALM      30.00R

$$

EAST SAN DIEGO COUNTY

CITY           SKY/WX    TMP DP  RH WIND       PRES   REMARKS
RAMONA         CLEAR     51  49  92 CALM      29.98S
LA MESA          N/A     57  52  84 CALM      29.93R
DESCANSO N       N/A     53  44  70 NE1       29.97R

$$

ORANGE COUNTY AND THE LOS ANGELES BASIN

CITY           SKY/WX    TMP DP  RH WIND       PRES   REMARKS
JOHN WAYNE AP  CLOUDY    65  56  72 CALM      29.97S
LAGUNA BEACH     N/A     64  59  83 N1        29.96S
LAKE FOREST FR   N/A     60  53  77 CALM      29.86R
HUNTINGTON BCH   N/A     62  56  80 CALM      29.97S
LOS ALAMITOS   CLOUDY    63  58  83 NW3       29.98R
FULLERTON      CLOUDY    65  58  78 NW5       29.97S
LONG BEACH     CLOUDY    63  55  75 NW6       29.98S
L.A. AP        MOCLDY    61  55  81 W5        29.98S
L.A. DOWNTOWN  CLOUDY    63  55  75 CALM      29.98R

$$

THE INLAND EMPIRE

CITY           SKY/WX    TMP DP  RH WIND       PRES   REMARKS
CORONA         CLEAR     58  56  93 CALM      29.99S
UPLAND AP      FAIR      59  54  82 CALM      29.98F
CHINO          CLEAR     60  54  80 W3        29.99S
ONTARIO        PTCLDY    60  56  86 W7        29.98S
SAN BERNARDINO FAIR      61  53  75 W5        29.99S
RIVERSIDE AP   CLEAR     59  54  83 W6        29.98S
MARCH ARB      CLEAR     56  53  89 NW6       29.98S
HEMET AP       FAIR      56  54  94 SW5       29.98F
FRENCH VALLEY  FAIR      57  54  88 CALM      29.99S

$$

SAN BERNARDINO AND RIVERSIDE COUNTY MOUNTAINS

CITY           SKY/WX    TMP DP  RH WIND       PRES   REMARKS
BIG BEAR AP    CLEAR     41  23  48 CALM      30.22S
BIG BEAR LAKE    N/A     46  31  56 W1        29.97R
LK ARROWHEAD N   N/A     55  30  38 CALM      29.88S
WRIGHTWOOD       N/A     54  25  32 CALM      29.85S
IDYLLWILD        N/A     51  37  57 CALM      29.83F

$$

SOUTHERN DESERT INCLUDING THE COACHELLA VALLEY

CITY           SKY/WX    TMP DP  RH WIND       PRES   REMARKS
PALM SPRINGS   CLEAR     80  50  34 NW8       29.87R
THOUSAND PALMS   N/A     80  51  35 W6        29.80R
PALM DESERT      N/A     78  54  42 CALM        N/A
INDIO            N/A     80  53  38 W5        29.82R
THERMAL        CLEAR     72  45  37 N5        29.81R
BORREGO AP     FAIR      79  46  31 NW8       29.84S
OCOTILLO WELLS   N/A     80  45  29 S1        29.74S
CANEBRAKE        N/A     78  34  20 CALM      29.77S
BLYTHE         CLEAR     81  34  18 S7        29.83R
IMPERIAL AP    CLEAR     75  47  36 CALM      29.80S
EL CENTRO NAS  CLEAR     77  46  33 CALM      29.82R
YUMA AZ        CLEAR     75  41  29 CALM      29.83S

$$

UPPER DESERT

CITY           SKY/WX    TMP DP  RH WIND       PRES   REMARKS
HESPERIA         N/A     64  45  49 SW5       29.71R
APPLE VALLEY     N/A     60  43  54 N1        29.93S
PALMDALE       CLEAR     72  34  24 SW13      29.97F
LANCASTER      CLEAR     70  36  28 SW9       29.96S
EDWARDS AFB    CLEAR     70  38  32 SW8       29.93S
GRAY BUTTE AP  FAIR      64 N/A N/A SW5       29.97S
DAGGETT        CLEAR     76  29  17 NW7       29.93R
29 PALMS N     CLEAR     78  32  18 N6        29.99R
29 PALMS JTNP    N/A     74  31  20 CALM      29.77R
NEEDLES        CLEAR     79  11   7 CALM      29.85S

$$

REGIONAL REPORTS

CITY           SKY/WX    TMP DP  RH WIND       PRES   REMARKS
SANTA BARBARA  CLOUDY    56  53  90 CALM      29.98R
SANDBERG       CLEAR     69  33  26 NW14      30.09S
LAS VEGAS NV   CLEAR     74  21  13 W7        29.94S
PHOENIX AZ     CLEAR     78  27  15 E6        29.84R
TIJUANA        CLEAR     55  48  76 CALM      30.02R
ENSENADA NW      N/A     58  32  37 CALM      29.96S

$$

OFFSHORE ISLANDS

CITY           SKY/WX    TMP DP  RH WIND       PRES   REMARKS
CATALINA ARPT  FOG       55  53  93 E3        30.00S VSB 3/4
SAN CLEMENTE I CLOUDY    61 N/A N/A CALM      30.00S
SAN NICOLAS IS CLOUDY    55  51  86 SW7       29.99R

$$

MARINE AND OFFSHORE BUOY REPORTS

STATION/POSITION SKY/WX   TEMP    WIND        PRES    VSBY  SWELL
                          AIR SEA DIR/SP/G                  HT/PER/DIR
                          (F)     (DEG/KT/KT) (MB)    (MI)  (FT/S/D)

$$



 

View Past Reports for San Diego, CA.

Products Courtesy of NOAA-NWS
NWS Information Parsing Script by Ken True at Saratoga Weather - Script by SE Lincoln Weather.